星链-3159 (STARLINK-3159 )

导读

STARLINK-3159是美国太空探索技术公司(SpaceX)星链星座的卫星,于2021年11月13日发射升空,属于星链低轨互联网星座组网卫星。星链计划旨在构建全球卫星互联网,该卫星为实现全球覆盖、提供宽带服务贡献力量,服务覆盖通信、导航等多元领域,推动全球太空互联网基础设施建设。

Basic Information
目录编号:
49415
目录名称:
STARLINK-3159
国际标识:
2021-104H
轨道中心:
EARTH
卫星名称:
星链-3159
卫星全名:
星链-3159 (STARLINK-3159 )
卫星状态:
在轨 (已飞行1763 天)
发射日期:
2021-11-13 UTC
国别 :
美国 (US)
星等 :
--
This satellite is enrolled in the Space Conjunction Data Service (SCDS) and the current flight risk assessment level is: High Risk
Orbit Information
数据来源 国际轨道数据
星历时间: 2026-09-11T20:51:59+0800
7小时前
查看轨道信息
半长轴: 6840.873km
偏心率: 0.0001256
轨道倾角: 53.160°
近地点辐角 81.454°
升交点赤经 93.283°
平近点角 278.660°
近地点: 461.876km
远地点: 463.596km
周期: 93.848分钟
每日圈数: 15.343891
Detailed Information
固有亮度:
5
最大亮度:
2.5
卫星平台:
Starlink v1.5
覆盖范围:
全球
运营商:
太空探索技术公司
运营商所在国:
美国
制造商(研发单位):
太空探索技术公司
制造商所在国:
美国
使用方式:
暂无
Satellite Introduction
星链(Starlink)计划是由太空探索技术公司(SpaceX)提出的一个巨型低轨卫星互联网星座项目,计划在2019年至2024年间在太空搭建由约1.2万颗卫星组成的“星链”网络,其中1584颗将部署在地球上空550千米处的近地轨道,并从2020年开始工作。该卫星仍在工作。
2D Orbit Map
3D Orbit Map
Orbit Altitude Analysis Chart
Orbit Inclination Analysis Chart
Orbit Comprehensive Analysis Chart
View Comprehensive Chart
Conjunction Data List
Event ID Objects TCA Miss Dist (km) Collision Risk Probability Collision Risk Index (CRI) Action
CDM_260911-211104-941506-826623
2026-09-11T
21:11:12+0000
0.532 km
远距离
1.19619E-4 高风险 0.77
CDM_260911-203303-279104-941525
SEEDS (32791)
2026-09-11T
20:33:36+0000
0.727 km
远距离
7.601323E-5 中风险 0.73
CDM_260911-092704-941506-826623
2026-09-11T
09:27:45+0000
0.693 km
远距离
5.712764E-5 中风险 0.7
CDM_260912-071704-941505-866126
2026-09-12T
07:17:42+0000
1.470 km
极远距离
5.564179E-6 低风险 0.5
CDM_260911-075304-941506-826622
2026-09-11T
07:53:57+0000
1.892 km
极远距离
2.19599E-6 低风险 0.42
CDM_260913-200004-941506-897921
2026-09-13T
20:00:09+0000
1.578 km
极远距离
1.849784E-6 低风险 0.4
CDM_260911-224404-941506-826622
2026-09-11T
22:44:59+0000
2.246 km
极远距离
1.468911E-6 低风险 0.38
CDM_260911-212003-279104-941522
SEEDS (32791)
2026-09-11T
21:20:31+0000
2.843 km
极远距离
1.428028E-6 低风险 0.38
CDM_260912-081304-941505-177721
2026-09-12T
08:13:02+0000
2.963 km
极远距离
1.125598E-6 低风险 0.36
CDM_260913-173904-941506-897921
2026-09-13T
17:39:28+0000
1.924 km
极远距离
1.09508E-6 低风险 0.36
Miss Distance Evolution Trend with All Objects
Collision Probability Evolution Trend with All Objects